sat.trackr.live / text

‹ back to catalog

STARLINK-37540

NORAD 68914 · 2026-097V

PAYLOAD ACTIVE UNKNOWN

§ Identity

Operator
Country
US
Launch date
2026-04-30
Launch site
AFWTR
Launch vehicle
Mass (kg)
RCS (m²)

Purposes: comms

External: N2YO · Heavens-Above · Gunter

§ Orbital elements

Epoch: 2026-09-19T18:53:07.647648Z

Period
93.91 min
Inclination
97.2860°
Eccentricity
0.0001055
Mean motion
15.33457714 rev/d
Perigee alt
464.8 km
Apogee alt
466.2 km
Semi-major
6,843.6 km
B*
1.4067e-3
RAAN
96.9571°
Arg perigee
84.6946°
Mean anomaly
275.4417°
Rev number
2,198

§ Raw data

STARLINK-375401 68914U 26097V   26262.78689407  .00045631  00000+0  14067-2 0  99972 68914  97.2860  96.9571 0001055  84.6946 275.4417 15.33457714 21987

JSON: /api/v1/satellites/68914 · /tle

For live sub-satellite position, see the globe view (requires WebGL).

§ Visibility from observer

Set your observer location to see the next 7 days of passes ≥ 10°. The values pass through the URL so the page stays shareable.

No JS? Fill the form by hand. The geolocation button needs JavaScript.